Houston Hull, TX

7:01 AM CST on December 15, 2017 (GMT -0600)
Sugar Land Municipal-Hull

Weather History for KSGR - March, 2014

Change the Weather History Date:

Thursday, March 27, 2014

  Actual Average Record
Temperature  
Mean Temperature 68 °F -  
Max Temperature 73 °F 74 °F 87 °F (2017)
Min Temperature 63 °F 55 °F 30 °F (1955)
Cooling Degree Days 3    
Growing Degree Days 18 (Base 50)    
Moisture  
Dew Point 65 °F    
Average Humidity 88    
Maximum Humidity 93    
Minimum Humidity 84    
Precipitation  
Precipitation 0.00 in - - ()
Sea Level Pressure  
Sea Level Pressure 29.89 in    
Wind  
Wind Speed 13 mph (SSE)    
Max Wind Speed 18 mph    
Max Gust Speed 25 mph    
Visibility 7 miles    
Events Rain    
Averages and records for this station are not official NWS values.
T = Trace of Precipitation, MM = Missing Value Source: NWS Daily Summary

Daily Weather History Graph

Daily Weather History Graph

Search for Another Location

Airport or City:

Trip Planner

Search our weather history database for the weather conditions in past years. The results will help you decide how hot, cold, wet, or windy it might be!

Date:

Astronomy

Mar. 27, 2014 Rise Set
Actual Time 7:18 AM CDT 7:38 PM CDT
Civil Twilight 6:54 AM CDT 8:02 PM CDT
Nautical Twilight 6:26 AM CDT 8:30 PM CDT
Astronomical Twilight 5:58 AM CDT 8:58 PM CDT
Moon 4:55 AM CDT (3/27) 4:39 PM CDT (3/27)
Length of Visible Light 13h 07m
Length of Day
12h 20m
Waning Crescent, 13% of the Moon is Illuminated
Mar 27
Waning Crescent
Mar 30
New
Apr 7
First Quarter
Apr 15
Full
Apr 22
Last Quarter

Hourly Weather History & Observations

Time (CDT) Temp. Dew Point Humidity Pressure Visibility Wind Dir Wind Speed Gust Speed Precip Events Conditions
12:19 AM 63.0 °F 57.9 °F 84% 30.01 in 10.0 mi SSE 13.8 mph - N/A   Overcast
12:53 AM 63.0 °F 59.0 °F 87% 30.01 in 10.0 mi SSE 13.8 mph - N/A   Overcast
1:53 AM 64.0 °F 59.0 °F 84% 29.99 in 10.0 mi SSE 13.8 mph 21.9 mph N/A   Overcast
2:53 AM 64.0 °F 60.1 °F 87% 29.97 in 10.0 mi SSE 12.7 mph - N/A   Overcast
3:53 AM 64.0 °F 60.1 °F 87% 29.93 in 10.0 mi SE 12.7 mph - N/A   Overcast
4:13 AM 64.0 °F 60.1 °F 87% 29.92 in 10.0 mi SSE 11.5 mph - N/A   Overcast
4:53 AM 64.9 °F 60.1 °F 84% 29.90 in 10.0 mi SSE 15.0 mph - N/A   Overcast
5:16 AM 64.9 °F 61.0 °F 87% 29.90 in 10.0 mi SSE 13.8 mph - N/A   Overcast
5:53 AM 64.9 °F 61.0 °F 87% 29.90 in 10.0 mi SE 12.7 mph - N/A   Overcast
6:53 AM 66.0 °F 61.0 °F 84% 29.91 in 10.0 mi SE 10.4 mph - N/A   Overcast
7:06 AM 66.0 °F 62.1 °F 87% 29.91 in 10.0 mi SE 11.5 mph - N/A   Overcast
7:14 AM 66.0 °F 62.1 °F 87% 29.91 in 10.0 mi SSE 12.7 mph - N/A   Overcast
7:53 AM 66.0 °F 62.1 °F 87% 29.91 in 10.0 mi SE 15.0 mph - N/A   Overcast
8:53 AM 66.9 °F 63.0 °F 87% 29.92 in 9.0 mi SSE 9.2 mph - N/A   Overcast
9:53 AM 68.0 °F 64.0 °F 87% 29.92 in 8.0 mi SE 11.5 mph - N/A   Overcast
10:53 AM 71.1 °F 66.0 °F 84% 29.91 in 8.0 mi SSE 15.0 mph - N/A   Overcast
11:53 AM 71.1 °F 66.9 °F 87% 29.91 in 7.0 mi SSE 16.1 mph - 0.00 in   Overcast
12:53 PM 72.0 °F 66.9 °F 84% 29.89 in 7.0 mi South 16.1 mph - 0.00 in Rain Light Rain
1:53 PM 73.0 °F 68.0 °F 84% 29.87 in 7.0 mi South 18.4 mph 25.3 mph 0.00 in   Overcast
2:53 PM 72.0 °F 68.0 °F 87% 29.85 in 7.0 mi South 13.8 mph - 0.00 in   Overcast
3:53 PM 72.0 °F 68.0 °F 87% 29.83 in 7.0 mi South 12.7 mph - 0.00 in   Overcast
4:53 PM 72.0 °F 69.1 °F 91% 29.82 in 4.0 mi South 13.8 mph - N/A   Overcast
5:16 PM 71.1 °F 69.1 °F 93% 29.81 in 4.0 mi South 11.5 mph - 0.00 in   Overcast
5:30 PM 71.1 °F 69.1 °F 93% 29.81 in 2.5 mi South 10.4 mph - 0.00 in   Overcast
5:53 PM 71.1 °F 69.1 °F 93% 29.81 in 3.0 mi South 10.4 mph - 0.00 in Rain Light Rain
6:53 PM 71.1 °F 69.1 °F 93% 29.80 in 3.0 mi SSE 15.0 mph - 0.00 in   Overcast
7:53 PM 71.1 °F 69.1 °F 93% 29.81 in 4.0 mi South 11.5 mph - N/A   Overcast
8:53 PM 71.1 °F 69.1 °F 93% 29.81 in 6.0 mi South 12.7 mph - N/A   Overcast
9:53 PM 71.1 °F 69.1 °F 93% 29.82 in 5.0 mi South 10.4 mph - N/A   Overcast
10:53 PM 72.0 °F 70.0 °F 93% 29.84 in 5.0 mi SSW 6.9 mph - N/A   Overcast
11:53 PM 72.0 °F 70.0 °F 93% 29.84 in 4.0 mi SSW 10.4 mph - 0.00 in Rain Light Rain